, TX

(GMT )
Midland

Weather History for KMAF - October, 2012

Change the Weather History Date:

Friday, October 12, 2012

  Actual Average Record
Temperature  
Mean Temperature 76 °F 66 °F  
Max Temperature 84 °F 79 °F 98 °F (1979)
Min Temperature 67 °F 53 °F 37 °F (1986)
Degree Days  
Heating Degree Days 0 2  
Month to date heating degree days 45 20  
Since 1 July heating degree days 56 31  
Cooling Degree Days 11 4  
Month to date cooling degree days 36 57  
Year to date cooling degree days 2825 2236  
Growing Degree Days 25 (Base 50)    
Moisture  
Dew Point 65 °F    
Average Humidity 72    
Maximum Humidity 93    
Minimum Humidity 51    
Precipitation  
Precipitation T in 0.07 in 0.81 in (1937)
Month to date precipitation T 0.79  
Year to date precipitation 12.60 12.37  
Snow  
Snow 0.00 in - - ()
Month to date snowfall 0.0  
Since 1 July snowfall 0.0  
Since 1 September snowfall 0.0  
Snow Depth 0.00 in    
Sea Level Pressure  
Sea Level Pressure 29.97 in    
Wind  
Wind Speed 16 mph (SSE)    
Max Wind Speed 24 mph    
Max Gust Speed 30 mph    
Visibility 10 miles    
Events      
T = Trace of Precipitation, MM = Missing Value Source: NWS Daily Summary

Daily Weather History Graph

Daily Weather History Graph

Search for Another Location

Airport or City:

Trip Planner

Search our weather history database for the weather conditions in past years. The results will help you decide how hot, cold, wet, or windy it might be!

Date:

Astronomy

Oct. 12, 2012 Rise Set
Actual Time 7:50 AM CDT 7:19 PM CDT
Civil Twilight 7:25 AM CDT 7:43 PM CDT
Nautical Twilight 6:57 AM CDT 8:12 PM CDT
Astronomical Twilight 6:29 AM CDT 8:40 PM CDT
Moon 4:45 AM CDT (10/12) 5:22 PM CDT (10/12)
Length of Visible Light 12h 17m
Length of Day
11h 28m
Waning Crescent, 10% of the Moon is Illuminated
Oct 12
Waning Crescent
Oct 15
New
Oct 21
First Quarter
Oct 29
Full
Nov 6
Last Quarter

Hourly Weather History & Observations

Time (CDT) Temp. Heat Index Dew Point Humidity Pressure Visibility Wind Dir Wind Speed Gust Speed Precip Events Conditions
12:53 AM 68.0 °F - 64.0 °F 87% 29.98 in 10.0 mi ESE 8.1 mph - N/A   Clear
1:53 AM 68.0 °F - 64.0 °F 87% 29.96 in 10.0 mi ESE 10.4 mph - N/A   Clear
2:53 AM 66.9 °F - 64.0 °F 90% 29.97 in 10.0 mi ESE 11.5 mph - N/A   Clear
3:53 AM 66.9 °F - 64.9 °F 93% 29.97 in 10.0 mi SE 6.9 mph - N/A   Partly Cloudy
4:17 AM 66.2 °F - 64.4 °F 94% 30.10 in 10.0 mi SSE 6.9 mph - N/A   Mostly Cloudy
4:53 AM 68.0 °F - 66.0 °F 93% 29.96 in 10.0 mi SSE 8.1 mph - N/A   Overcast
5:27 AM 69.8 °F - 66.2 °F 88% 30.08 in 10.0 mi SSE 10.4 mph - N/A   Scattered Clouds
5:53 AM 69.1 °F - 66.9 °F 93% 29.94 in 10.0 mi SSE 11.5 mph - N/A   Scattered Clouds
6:53 AM 69.1 °F - 66.9 °F 93% 29.94 in 10.0 mi SSE 13.8 mph - N/A   Clear
7:53 AM 70.0 °F - 66.9 °F 90% 29.97 in 10.0 mi SSE 16.1 mph - 0.00 in   Scattered Clouds
8:20 AM 69.8 °F - 66.2 °F 88% 30.09 in 10.0 mi SSE 12.7 mph - N/A   Mostly Cloudy
8:53 AM 70.0 °F - 66.9 °F 90% 30.00 in 10.0 mi South 13.8 mph - N/A   Overcast
9:53 AM 72.0 °F - 66.0 °F 81% 30.01 in 10.0 mi South 18.4 mph - N/A   Overcast
10:53 AM 73.0 °F - 66.0 °F 79% 30.01 in 10.0 mi SSE 19.6 mph - N/A   Overcast
11:00 AM 73.4 °F - 66.2 °F 78% 30.12 in 9.0 mi South 19.6 mph - N/A   Mostly Cloudy
11:33 AM 75.2 °F - 66.2 °F 73% 30.12 in 10.0 mi SSE 19.6 mph - N/A   Mostly Cloudy
11:53 AM 77.0 °F - 66.0 °F 69% 30.00 in 10.0 mi South 20.7 mph 27.6 mph N/A   Mostly Cloudy
12:53 PM 80.1 °F 82.1 °F 66.0 °F 62% 29.98 in 10.0 mi South 20.7 mph - N/A   Partly Cloudy
1:53 PM 80.1 °F 82.1 °F 66.0 °F 62% 29.96 in 10.0 mi SSE 21.9 mph 28.8 mph N/A   Mostly Cloudy
2:53 PM 82.9 °F 84.6 °F 64.9 °F 54% 29.93 in 10.0 mi South 20.7 mph 26.5 mph N/A   Scattered Clouds
3:53 PM 82.9 °F 84.0 °F 63.0 °F 51% 29.91 in 10.0 mi South 20.7 mph 28.8 mph N/A   Clear
4:53 PM 82.9 °F 84.0 °F 63.0 °F 51% 29.90 in 10.0 mi SSE 24.2 mph 27.6 mph N/A   Clear
5:53 PM 80.1 °F 81.5 °F 63.0 °F 56% 29.89 in 10.0 mi SSE 19.6 mph - N/A   Clear
6:53 PM 78.1 °F - 63.0 °F 60% 29.89 in 10.0 mi SSE 17.3 mph - N/A   Clear
7:53 PM 75.0 °F - 63.0 °F 66% 29.90 in 10.0 mi SSE 16.1 mph - N/A   Clear
8:53 PM 73.4 °F - 62.6 °F 69% 30.01 in 10.0 mi SSE 18.4 mph - N/A   Clear
9:53 PM 73.0 °F - 63.0 °F 71% 29.90 in 10.0 mi SSE 11.5 mph - N/A   Clear
10:53 PM 72.0 °F - 63.0 °F 73% 29.91 in 10.0 mi SSE 12.7 mph - N/A   Clear
11:53 PM 73.0 °F - 64.9 °F 76% 29.88 in 10.0 mi SSE 19.6 mph 26.5 mph N/A   Clear